ヴァイサラ-オテルマ彗星

139P/Vaisala-Oterma (2017)

English version
Home page
Updated on February 13, 2018

---------------------------------------------------------------------

・ プロフィール

・ 写真集

・ 軌道要素

Epoch 2017 Nov. 23.0 TT = JDT 2458080.5
T 2017 Dec. 10.83086 TT                                 MPCW
q   3.4144048            (2000.0)            P               Q
n   0.10221918     Peri.  166.06820     +0.66537584     -0.74563949
a   4.5301696      Node   242.20708     +0.68095066     +0.62600390
e   0.2462965      Incl.    2.33294     +0.30591041     +0.22834376
P   9.64
From 457 observations 1939 Oct. 7-2018 Jan. 14, mean residual 0".6.

・ 光度変化

        m1 = 11.0 + 5 logΔ + 10.0 log r

---------------------------------------------------------------------

軌道要素はM.P.E.C. 2018-B155に掲載されたものです。
光度グラフはComet for Windowsで作成したものです。

---------------------------------------------------------------------

Copyright(C) Seiichi Yoshida (comet@aerith.net). All rights reserved.